Terug naar catalogus

ATLAS 5 CENTAUR DEB

ActiefHEO
NORAD 43988·DEBRIS·🇺🇸 United States

Gelanceerd Sep 17, 2014 vanaf Cape Canaveral Space Force Station

Loading…

Volgende Passages (komende 24 uur)

TLE

VersSource: Space-Track

Epoch: Sep 14, 2026, 00:43 UTC

1 43988U 14055AT  26257.03001901 -.00000114  00000-0  00000-0 0  9990
2 43988  20.3627 129.8940 4725966 190.5157 154.4060  1.87317249 55028

Volg ATLAS 5 CENTAUR DEB in realtime met AllMySat

Download on the App Store